EHI
0 0 0 0 0 0 0 0 0 0 0 0 0 0 0 0 0 0 0 0 0 0 0 0 0 0 0 0 0 0 0 0 0 0 0 0 0 0 0 0 0 0 0 0
0 0 0 0 0 0 0 0 0 0 0 0 0 0 0 0 0 0 0 0 0 0 0 0 0 0 0 0 0 0 0 0 0 0 0 0 0 0 0 0 0 0 0 0
0 0 0 0 0 0 0 0 0 0 0 0 0 0 0 0 0 0 0 0 0 0 0 0 0 0 0 0 0 0 0 0 0 0 0 0 0 0 0 0 0 0 0 0
0 0 0 0 0 0 0 0 0 0 0 0 0 0 0 0 0 0 0 0 0 0 0 0 0 0 0 0 0 0 0 0 0 0 0 0 0 0 0 0 0 0 0 0
0 0 0 0 0 0 0 0 0 0 0 0 0 0 0 0 0 0 0 0 0 0 0 0 0 0 0 0 0 0 0 0 0 0 0 0 0 0 0 0 0 0 0 0
0 0 0 0 0 0 0 0 0 0 0 0 0 0 0 0 0 0 0 0 0 0 0 0 0 0 0 0 0 0 0 0 0 0 0 0 0 0 0 0 0 0 0 0
0 0 0 0 0 0 0 0 0 0 0 0 0 0 0 0 0 0 0 0 0 0 0 0 0 0 0 0 0 0 0 0 0 0 0 0 0 0 0 0 0 0 0 0
0 0 0 0 0 0 0 0 0 0 0 0 0 0 0 0 0 0 0 0 0 0 0 0 0 0 0 0 0 0 0 0 0 0 0 0 0 0 0 0 0 0 0 0
0 0 0 0 0 0 0 0 0 0 0 0 0 0 0 0 0 0 0 0 0 0 0 0 0 0 0 0 0 0 0 0 0 0 0 0 0 0 0 0 0 0 0 0
0 0 0 0 0 0 0 0 0 0 0 0 0 0 0 0 0 0 0 0 0 0 0 0 0 0 0 0 0 0 0 0 0 0 0 0 0 0 0 0 0 0 0 0
0 0 0 0 0 0 0 0 0 0 0 0 0 0 0 0 0 0 0 0 0 0 0 0 0 0 0 0 0 0 0 0 0 0 0 0 0 0 0 0 0 0 0 0
0 0 0 0 0 0 0 0 0 0 0 0 0 0 0 0 0 0 0 0 0 0 0 0 0 0 0 0 0 0 0 0 0 0 0 0 0 0 0 0 0 0 0 0
0 0 0 0 0 0 0 0 0 0 0 0 0 0 0 0 0 0 0 0 0 0 0 0 0 0 0 0 0 0 0 0 0 0 0 0 0 0 0 0 0 0 0 0
0 0 0 0 0 0 0 0 0 0 0 0 0 0 0 0 0 0 0 0 0 0 0 0 0 0 0 0 0 0 0 0 0 0 0 0 0 0 0 0 0 0 0 0
0 0 0 0 0 0 0 0 0 0 0 0 0 0 0 0 0 0 0 0 0 0 0 0 0 0 0 0 0 0 0 0 0 0 0 0 0 0 0 0 0 0 0 0
0 0 0 0 0 0 0 0 0 0 0 0 0 0 0 0 0 0 0 0 0 0 0 0 0 0 0 0 0 0 0 0 0 0 0 0 0 0 0 0 0 0 0 0
0 0 0 0 0 0 0 0 0 0 0 0 0 0 0 0 0 0 0 0 0 0 0 0 0 0 0 0 0 0 0 0 0 0 0 0 0 0 0 0 0 0 0 0
0 0 0 0 0 0 0 0 0 0 0 0 0 0 0 0 0 0 0 0 0 0 0 0 0 0 0 0 0 0 0 0 0 0 0 0 0 0 0 0 0 0 0 0
0 0 0 0 0 0 0 0 0 0 0 0 0 0 0 0 0 0 0 0 0 0 0 0 0 0 0 0 0 0 0 0 0 0 0 0 0 0 0 0 0 0 0 0
0 0 0 0 0 0 0 0 0 0 0 0 0 0 0 0 0 0 0 0 0 0 0 0 0 0 0 0 0 0 0 0 0 0 0 0 0 0 0 0 0 0 0 0
0 0 0 0 0 0 0 0 0 0 0 0 0 0 0 0 0 0 0 0 0 0 0 0 0 0 0 0 0 0 0 0 0 0 0 0 0 0 0 0 0 0 0 0
0 0 0 0 0 0 0 0 0 0 0 0 0 0 0 0 0 0 0 0 0 0 0 0 0 0 0 0 0 0 0 0 0 0 0 0 0 0 0 0 0 0 0 0
0 0 0 0 0 0 0 0 0 0 0 0 0 0 0 0 0 0 0 0 0 0 0 0 0 0 0 0 0 0 0 0 0 0 0 0 0 0 0 0 0 0 0 0
0 0 0 0 0 0 0 0 0 0 0 0 0 0 0 0 0 0 0 0 0 0 0 0 0 0 0 0 0 0 0 0 0 0 0 0 0 0 0 0 0 0 0 0
0 0 0 0 0 0 0 0 0 0 0 0 0 0 0 0 0 0 0 0 0 0 0 0 0 0 0 0 0 0 0 0 0 0 0 0 0 0 0 0 0 0 0 0
0 0 0 0 0 0 0 0 0 0 0 0 0 0 0 0 0 0 0 0 0 0 0 0 0 0 0 0 0 0 0 0 0 0 0 0 0 0 0 0 0 0 0 0
0 0 0 0 0 0 0 0 0 0 0 0 0 0 0 0 0 0 0 0 0 0 0 0 0 0 0 0 0 0 0 0 0 0 0 0 0 0 0 0 0 0 0 0
Wind_Speed
4 4 2 2 4 3 3 5 6 6 4 7 6 4 3 2 1 1 0 2 5 6 7 8 8 8 8 8 8 8 8 7 7 6 5 4 4 3 3 2 2 2 1 0
5 5 4 4 5 3 2 2 2 1 3 5 4 2 4 4 3 1 2 3 4 5 6 8 9 9 9 9 9 8 9 9 7 6 6 5 5 4 3 3 2 2 2 1
4 6 4 4 4 1 3 3 1 1 4 5 4 5 4 4 5 3 4 4 4 5 7 8 9 10 11 11 9 9 9 8 8 7 7 6 6 5 4 4 3 2 2 2
1 3 1 6 2 2 5 6 5 3 4 5 2 0 2 4 4 6 5 5 5 5 5 6 7 7 9 8 9 10 9 9 9 8 8 7 6 6 5 4 3 3 3 3
2 1 4 5 5 3 2 4 7 6 7 9 6 4 5 7 6 5 5 5 5 5 5 4 5 6 7 8 9 10 10 10 10 10 9 8 7 7 5 4 4 4 3 4
3 2 3 5 9 6 5 3 8 7 7 8 8 5 6 10 8 8 7 6 5 4 2 2 4 4 6 8 9 11 12 12 11 10 10 10 9 7 5 5 5 4 4 4
2 3 4 5 8 6 5 4 6 6 6 5 3 3 7 9 8 8 7 7 6 5 4 4 3 3 6 7 10 12 10 9 9 10 11 10 8 6 5 5 4 4 4 3
1 1 4 7 6 4 2 3 4 5 5 5 5 7 8 9 9 9 10 8 7 6 6 5 2 3 5 8 9 7 7 9 10 10 10 9 8 7 6 6 5 4 3 2
4 4 2 3 3 1 1 2 3 4 5 5 6 7 8 8 8 8 8 8 7 6 7 6 4 4 7 8 5 5 6 9 9 10 9 8 9 9 6 6 5 5 4 4
1 1 1 2 3 4 3 3 3 4 4 5 5 7 8 8 8 9 8 8 7 7 8 8 7 6 7 6 5 5 7 8 7 9 8 7 7 7 7 7 6 6 6 5
2 3 2 3 4 4 4 4 5 5 5 5 5 6 6 7 8 8 8 8 7 7 8 9 9 8 7 5 4 6 6 7 7 7 8 8 6 6 7 7 8 8 7 7
5 5 3 4 4 4 4 5 6 6 6 6 5 6 6 7 7 7 8 8 8 8 9 9 10 9 8 6 5 6 6 6 6 5 6 6 6 3 1 3 8 11 11 9
4 3 3 3 3 3 3 5 6 5 6 7 7 6 7 7 7 7 8 9 9 10 10 10 10 10 9 7 6 8 8 7 5 6 7 7 8 8 5 2 2 6 10 12
2 1 1 2 3 4 4 5 5 5 6 6 7 7 8 8 8 9 9 9 9 10 10 10 10 10 9 8 7 8 8 9 8 7 7 8 8 9 8 8 6 3 4 9
2 2 3 3 3 3 3 4 5 7 8 8 7 8 9 10 10 10 10 10 9 10 10 10 11 11 9 8 8 8 8 6 6 6 7 7 7 8 8 9 8 6 4 5
2 1 1 2 3 4 4 5 5 7 8 8 9 9 10 10 11 10 10 9 9 11 11 11 12 11 10 9 8 7 7 10 8 6 7 7 7 8 8 9 9 8 8 7
2 2 3 4 5 5 5 6 6 7 8 9 10 10 11 11 11 10 10 9 9 11 11 11 11 11 10 9 8 6 6 7 10 7 7 8 8 9 9 10 10 9 9 9
5 5 5 5 5 6 7 7 7 8 9 10 10 10 10 10 11 11 11 11 11 11 10 10 10 10 10 9 7 6 6 6 7 7 7 8 8 8 9 10 10 11 7 9
3 4 4 5 5 5 6 7 8 8 9 9 10 11 11 10 10 11 11 10 11 12 11 10 15 11 10 10 9 6 6 6 6 6 6 9 9 8 8 9 10 10 10 9
3 4 4 5 5 5 7 8 8 9 9 9 10 10 11 11 10 11 10 9 9 9 10 12 12 9 9 9 9 6 6 7 7 7 7 7 9 9 8 9 10 10 10 10
5 5 6 6 7 7 7 8 8 10 10 9 9 10 11 11 10 9 9 10 10 10 11 15 10 8 8 9 10 6 7 7 7 7 8 8 8 9 9 9 10 11 10 10
5 6 7 7 7 8 8 7 8 10 10 10 10 10 10 10 10 9 9 8 10 14 11 7 7 11 14 14 7 7 7 7 7 7 7 8 8 9 9 10 10 10 10 10
6 6 7 7 8 8 9 8 8 8 10 10 10 10 10 9 7 7 9 8 7 14 11 8 13 19 20 10 7 7 8 8 7 7 7 8 8 8 9 10 10 10 10 10
7 7 7 7 7 7 9 10 9 8 9 9 9 9 9 8 7 7 7 13 16 16 9 11 18 20 17 7 7 7 7 7 7 7 7 7 7 7 7 9 9 9 10 11
7 7 7 7 7 7 8 9 9 8 8 8 9 9 8 6 7 8 8 9 14 15 9 12 18 18 10 7 7 7 7 6 6 6 6 6 6 6 7 8 9 9 9 10
7 6 6 7 7 6 6 6 6 7 7 7 7 7 7 7 7 7 7 8 10 13 10 8 9 10 7 7 7 6 6 5 5 5 5 6 6 6 7 8 11 9 9 9
7 6 5 6 6 6 6 6 7 7 7 7 8 8 7 7 7 7 8 7 7 7 7 7 6 6 6 6 6 5 4 3 3 4 5 5 6 6 7 9 8 8 8 9
Wind_Direction
241 254 263 276 288 277 218 202 201 240 249 285 291 284 295 311 342 26 263 225 213 213 213 208 204 200 196 194 189 183 178 185 196 197 195 193 193 196 196 192 191 186 168 174
329 321 340 329 315 302 282 256 222 265 302 294 305 2 22 16 17 354 281 255 237 228 220 213 211 206 199 197 193 183 184 194 195 188 187 192 196 195 194 201 199 178 179 180
300 314 11 341 315 31 38 6 89 97 283 318 13 38 36 19 6 324 285 271 251 237 229 224 217 207 202 200 188 185 191 194 191 188 190 197 197 189 196 201 194 192 200 187
282 9 286 247 287 100 89 41 30 28 347 351 335 233 53 25 2 335 316 298 279 261 252 240 223 213 204 190 185 190 194 195 193 189 193 194 190 195 200 195 197 201 205 200
136 217 284 313 333 326 136 41 4 8 2 355 340 10 360 354 344 323 308 290 271 254 245 248 232 213 195 192 191 194 199 200 197 191 191 191 196 202 198 190 198 203 201 195
134 166 234 289 317 324 93 42 348 4 4 358 18 17 317 326 331 329 328 320 311 300 284 282 261 209 190 199 196 204 206 204 198 192 191 194 199 199 192 189 198 196 200 201
170 213 249 305 321 25 73 284 325 351 359 6 7 264 285 318 334 335 331 326 330 325 298 273 266 201 205 206 212 214 209 201 195 194 195 195 193 189 185 186 185 190 197 205
125 203 264 335 21 56 240 282 331 349 352 349 329 325 331 335 336 339 340 338 337 330 312 298 274 213 224 227 228 218 202 197 197 196 196 192 184 186 180 176 178 189 187 197
188 208 252 10 65 11 0 340 335 340 338 341 336 331 332 331 331 331 332 331 328 319 314 313 292 243 237 244 234 214 202 204 201 195 195 185 181 183 178 178 182 189 186 192
346 272 334 24 33 15 11 352 329 330 330 339 333 331 331 334 333 329 329 326 326 324 319 312 302 280 260 257 225 205 211 208 200 192 191 187 184 183 182 185 187 189 189 191
273 282 321 355 358 344 341 341 338 335 335 335 333 328 325 324 326 324 320 319 319 316 308 306 305 294 287 273 229 215 214 210 201 196 189 186 185 188 191 196 192 187 192 183
232 236 224 269 297 316 335 338 336 337 339 337 332 322 321 317 315 318 317 316 315 312 308 305 306 299 294 277 238 221 219 212 204 194 188 179 170 158 146 189 198 195 186 176
214 239 228 260 300 324 330 329 330 332 329 327 326 319 317 311 308 312 313 312 308 305 304 304 305 300 297 285 254 231 223 215 207 197 189 182 178 175 170 130 118 174 180 175
226 199 266 285 293 313 320 323 325 327 323 319 316 317 315 311 309 311 309 305 301 303 304 302 301 300 300 291 267 247 233 219 209 201 195 189 188 185 179 172 171 171 177 175
232 191 224 259 288 309 317 329 334 326 319 317 313 314 313 312 307 304 304 306 306 304 304 305 301 299 303 295 277 259 240 226 215 207 197 192 187 183 181 179 173 163 152 165
223 257 257 271 293 304 314 320 317 310 309 308 307 305 303 300 298 298 301 306 307 303 302 301 297 297 301 294 284 271 248 231 217 208 197 190 187 184 182 180 176 174 177 173
202 247 253 268 280 290 293 293 293 295 298 300 298 298 300 302 302 300 300 299 297 294 293 292 292 297 298 290 280 275 260 233 216 208 201 193 191 192 187 181 181 182 184 180
213 224 233 243 261 281 291 294 295 295 293 293 298 300 299 299 298 297 299 302 304 303 297 292 293 300 297 292 281 274 262 239 219 212 204 197 194 195 189 183 182 180 173 175
241 249 255 258 263 272 280 287 291 290 290 294 298 298 295 293 292 293 297 301 303 304 301 301 305 303 293 292 291 274 266 249 231 219 209 197 192 192 190 184 179 177 174 171
255 259 264 271 277 280 287 289 291 291 292 293 295 297 295 293 294 296 295 291 284 285 292 298 300 293 290 286 292 279 265 248 233 221 210 200 193 191 191 186 179 175 176 176
268 273 276 281 285 285 284 287 293 293 292 291 290 290 289 291 294 294 294 295 293 292 296 300 298 289 289 289 288 278 266 250 235 222 210 204 195 190 189 187 181 178 177 175
266 268 273 279 283 285 283 283 287 293 294 291 289 288 290 293 295 292 282 278 287 299 302 290 288 291 296 297 276 271 264 250 237 224 213 205 197 191 188 186 180 177 174 171
270 267 270 272 274 279 286 286 285 290 293 293 290 286 283 282 283 284 291 288 288 298 302 289 296 301 302 295 271 266 260 248 236 224 214 207 199 192 187 182 176 170 168 167
276 276 274 275 280 287 290 288 287 287 288 289 285 282 282 286 287 276 272 291 301 302 296 292 300 305 307 292 274 265 256 247 234 223 211 200 191 186 183 176 169 167 166 164
273 274 276 279 281 279 280 285 289 288 289 290 289 287 283 273 274 284 288 286 294 302 297 299 304 307 303 285 277 268 258 248 236 218 203 191 181 179 176 169 165 163 164 164
269 269 268 265 266 271 276 279 280 283 287 290 291 289 289 286 282 284 287 288 288 298 300 294 294 298 293 286 281 277 266 251 235 216 196 183 176 173 167 162 157 158 159 158
269 268 270 276 275 268 268 271 276 280 281 283 288 291 292 291 289 289 290 292 294 294 295 293 292 292 293 291 288 285 274 253 224 199 181 173 170 166 161 156 153 151 151 153